Lid_Strength_Index
-1 -2 -2 -1 -1 -1 -1 -1 -1 -1 -1 -2 -2 0 1 1 3 5 9 7 3 -0 2 5 5 5 5 5 6 6 7 9 9 9 8 7 6 7 6 6 6 4 5 3 1
-1 -1 -2 -1 -1 -1 -1 -1 -1 -1 -1 -1 -1 0 1 2 6 8 5 3 -1 -1 6 6 7 6 6 6 6 6 8 8 7 7 7 7 6 6 6 6 6 6 4 2 2
-1 -1 -1 -1 -1 -1 -1 -1 -1 -1 -1 -1 -1 1 1 3 9 9 3 -1 -2 -0 6 5 5 6 7 7 7 7 8 8 8 8 7 7 7 6 6 7 5 5 5 3 3
-1 -1 -1 -1 -1 -1 -1 -1 -1 -1 -1 -0 -0 1 2 5 14 7 -1 -2 -1 3 5 6 6 8 8 8 8 8 9 8 8 8 8 8 7 7 6 6 6 5 4 3 4
-1 -1 -1 -1 -1 -1 -1 -1 -1 -1 -0 -0 0 2 5 9 8 5 -1 -1 3 5 6 6 7 8 9 8 8 8 9 8 8 8 8 8 8 7 7 5 6 6 4 3 3
-1 -1 -1 -1 -1 -1 -1 -1 -1 -0 -0 -0 -0 1 4 10 4 3 4 4 4 4 6 6 6 6 8 9 8 9 8 8 8 8 8 9 9 9 7 7 7 7 5 4 3
-1 -1 -1 -1 -1 -1 -1 -1 -1 -0 -0 -1 -1 1 5 7 3 2 3 4 4 5 6 5 6 7 7 8 8 8 9 9 9 9 9 8 9 9 7 8 8 8 6 5 3
-1 -1 -1 -1 -1 -1 -1 -1 -1 0 -0 -1 -1 1 7 3 2 4 4 4 4 4 5 4 5 7 7 7 8 9 9 11 10 9 9 9 10 10 8 8 8 7 7 6 6
-1 -1 -1 -1 -1 -1 -1 -1 -1 1 -0 -1 3 5 9 2 4 4 4 5 4 5 5 6 5 7 8 9 10 11 12 12 12 10 9 10 10 9 8 8 8 8 7 7 6
-1 -1 -1 -1 -1 -1 -1 -1 -0 -0 0 1 5 7 7 7 4 4 4 4 5 5 6 6 8 9 9 10 13 12 13 13 12 10 10 10 10 8 8 8 7 7 7 7 6
-1 -1 -1 -1 -1 -1 -0 1 5 7 5 8 8 8 8 4 4 5 4 6 6 6 9 9 10 11 10 9 11 10 12 12 12 11 10 10 10 9 8 8 8 7 7 6 6
-0 -1 -1 -1 -1 -1 1 5 5 5 9 6 7 6 6 5 7 6 4 7 7 10 9 10 12 10 11 11 11 11 12 12 12 11 11 11 11 9 8 8 7 7 7 6 7
0 -1 -1 -0 -1 1 4 5 2 3 8 8 6 8 6 5 8 6 5 8 8 10 10 11 11 10 11 12 12 12 12 12 12 12 12 12 11 11 10 10 9 9 8 8 8
0 0 -1 -1 1 2 4 1 1 4 10 11 9 7 6 6 9 6 5 7 9 10 10 11 11 11 11 12 11 13 11 12 12 12 14 13 15 11 11 10 10 9 9 8 8
0 1 -0 -0 2 4 3 0 0 5 16 9 9 5 7 9 8 7 6 7 10 10 10 11 12 12 12 11 11 12 11 11 12 12 13 13 14 12 13 11 10 9 8 7 8
1 1 0 2 2 2 1 1 3 11 16 11 8 9 10 10 10 8 7 7 8 9 10 11 10 10 11 11 11 11 11 12 12 12 16 13 13 13 12 11 11 10 8 8 8
1 1 1 2 4 1 0 3 11 16 10 12 11 10 10 11 11 10 10 11 11 13 12 11 11 10 10 11 11 11 11 15 15 16 17 16 15 13 11 12 10 10 8 8 8
3 1 3 3 2 1 3 9 15 13 12 10 10 10 11 10 11 12 12 13 11 12 13 14 15 11 10 10 12 12 11 14 18 18 16 16 16 13 11 10 10 9 8 8 8
5 6 5 4 3 2 7 14 14 13 10 11 11 12 12 11 11 11 11 11 11 11 13 14 15 11 11 10 9 12 13 12 16 19 15 14 13 11 11 11 9 9 8 9 8
7 7 6 3 3 3 10 13 12 11 10 10 12 11 13 12 12 12 12 10 11 11 11 12 16 13 12 10 11 11 10 14 13 17 17 16 16 13 12 11 9 9 9 9 9
9 9 6 4 4 7 13 12 12 9 8 10 12 13 12 13 12 12 12 11 10 10 10 11 12 15 13 12 12 13 13 13 12 13 17 17 14 11 11 10 9 9 8 9 8
10 12 6 5 12 14 13 11 9 10 8 9 10 11 12 12 13 12 13 11 9 10 12 10 11 14 14 13 12 11 12 12 14 16 15 15 14 11 11 9 8 8 9 8 8
11 10 6 5 14 14 13 11 10 10 9 9 10 10 10 12 14 12 12 10 9 10 10 10 12 16 14 13 12 13 12 12 12 13 15 15 14 11 11 10 8 9 9 9 9
10 13 11 9 10 12 13 13 12 9 10 10 10 9 10 12 10 13 13 10 9 10 9 9 12 13 15 14 12 13 14 13 12 14 14 14 12 11 10 10 9 8 8 8 9
12 14 12 14 13 12 11 12 13 12 10 10 11 10 11 13 12 12 11 10 9 9 9 10 13 13 12 12 11 12 12 12 13 12 13 13 12 11 9 9 8 8 8 9 10
12 13 12 13 12 12 12 13 13 12 11 12 12 11 10 12 11 13 11 11 11 10 10 10 14 14 15 13 13 14 13 12 12 12 12 12 12 11 9 7 8 8 9 10 10
10 9 11 13 12 13 13 12 12 11 11 10 10 11 12 11 10 9 9 9 9 10 11 12 14 14 15 14 14 15 14 13 12 11 11 13 11 10 11 9 9 9 9 10 10